Skip Page Navigation
NASA JPL Caltech
NASA Logo - Jet Propulsion Laboratory + View the NASA Portal
+ Near-Earth Object (NEO) Program
Search JPL
JPL Home Earth Solar System Stars & Galaxies Technology
JPL Solar System Dynamics
BODIES ORBITS EPHEMERIDES TOOLS PHYSICAL DATA DISCOVERY FAQ SITE MAP
JPL Small-Body Database Browser
Search: [ help ]  
37595 (1991 UZ1)
Classification: Main-belt Asteroid          SPK-ID: 2037595
Ephemeris | Orbit Diagram | Orbital Elements | Physical Parameters | Discovery Circumstances ]

[ show orbit diagram ]
Orbital Elements at Epoch 2457000.5 (2014-Dec-09.0) TDB
Reference: JPL 9 (heliocentric ecliptic J2000)
 Element Value Uncertainty (1-sigma)   Units 
e .1181306702049439 6.6738e-08  
a 2.977317515003139 3.2936e-08 AU
q 2.625605001542901 1.9509e-07 AU
i 11.10419283021701 9.8056e-06 deg
node 28.46881003348167 3.6806e-05 deg
peri 25.21323609117647 5.5413e-05 deg
M 164.5145943084224 4.2999e-05 deg
tp 2456142.992187636936
(2012-Aug-03.49218764)
0.00021993 JED
period 1876.446364825027
5.14
3.1137e-05
8.525e-08
d
yr
n .1918520064033746 3.1835e-09 deg/d
Q 3.329030028463378 3.6827e-08 AU
  Orbit Determination Parameters
   # obs. used (total)      878  
   data-arc span      12423 days (34.01 yr)  
   first obs. used      1980-06-23  
   last obs. used      2014-06-28  
   planetary ephem.      DE431  
   SB-pert. ephem.      SB431-BIG16  
   condition code      0  
   fit RMS      .55595  
   data source      ORB  
   producer      Otto Matic  
   solution date      2014-Aug-13 14:59:14  

Additional Information
 Earth MOID = 1.64005 AU 
 T_jup = 3.222 
[ show covariance matrix ]

Ephemeris | Orbit Diagram | Orbital Elements | Physical Parameters | Discovery Circumstances ]

Physical Parameter Table
Parameter Symbol Value Units Sigma Reference Notes
absolute magnitude H 13.1 mag n/a MPO302282  

37595 (1991 UZ1)          Discovered 1991-Oct-29 by Ueda, S., Kaneda, H. at Kushiro (399)
Reference: 20020328/Numbers.arcLast Updated: 2004-04-19

Alternate Designations
 1991 UZ1 = 1999 GS2 
Ephemeris | Orbit Diagram | Orbital Elements | Physical Parameters | Discovery Circumstances ]
ABOUT SSD CREDITS/AWARDS PRIVACY/COPYRIGHT GLOSSARY LINKS
FirstGov 2014-Oct-25 10:12 UT
(server date/time)  
NASA Home Page
Site Manager:   Donald K. Yeomans
Webmaster  Alan B. Chamberlin